Location: Baix
(44.7118°N, 4.7648°E)
Time: 07:38:33
(UTC+00:00)

Vanguard 1 - Pass Details

Date: 30 November 2020
Orbit: 648 x 3834 km, 34.3° (Epoch: 21 January)

Event Time Altitude Azimuth Distance (km) Brightness Sun altitude
Rises 08:56:01 0° 269° (W) 4,493 13.1 14.9°
Reaches altitude 10° 08:58:47 10° 260° (W) 3,849 12.9 15.2°
Maximum altitude 09:08:17 37° 198° (SSW) 3,237 13.4 16.1°
Drops below altitude 10° 09:24:00 10° 140° (SE) 6,296 16.4 17.6°
Sets 09:30:14 0° 134° (SE) 7,662 16.0 18.2°
